This is the latest recevied weather packets stored in our database for station/object AD7ZD. If no packets are shown the sender has not sent any weather packets the latest 10 day(s).
| Time | Temp. | Humidity | Pressure | Rain* | Wind** | Luminosity | Snow |
|---|---|---|---|---|---|---|---|
| 1777684667 | 22.78° C | 11% | 1012.1 hPa | 0 mm | - | 169 W/m² | - |
| 1777684363 | 22.78° C | 13% | 1012.5 hPa | 0 mm | - | 172 W/m² | - |
| 1777684061 | 22.78° C | 11% | 1012.5 hPa | 0 mm | - | 190 W/m² | - |
| 1777683756 | 22.78° C | 11% | 1012.6 hPa | 0 mm | - | 241 W/m² | - |
| 1777683454 | 23.33° C | 12% | 1012.5 hPa | 0 mm | - | 221 W/m² | - |
| 1777683152 | 22.78° C | 11% | 1012.3 hPa | 0 mm | - | 285 W/m² | - |
| 1777682848 | 23.33° C | 11% | 1012.5 hPa | 0 mm | - | 284 W/m² | - |
| 1777682544 | 22.78° C | 11% | 1012.5 hPa | 0 mm | - | 250 W/m² | - |
| 1777682242 | 23.33° C | 11% | 1012.7 hPa | 0 mm | - | 285 W/m² | - |
| 1777681940 | 22.78° C | 11% | 1012.6 hPa | 0 mm | - | 252 W/m² | - |
| 1777681635 | 23.33° C | 11% | 1012.7 hPa | 0 mm | - | 327 W/m² | - |
| 1777681333 | 22.78° C | 11% | 1012.8 hPa | 0 mm | - | 290 W/m² | - |
| 1777681030 | 22.78° C | 11% | 1012.7 hPa | 0 mm | - | 323 W/m² | - |
| 1777680728 | 23.89° C | 10% | 1012.9 hPa | 0 mm | - | 352 W/m² | - |
| 1777680425 | 23.33° C | 11% | 1012.8 hPa | 0 mm | - | 390 W/m² | - |
| 1777680123 | 23.89° C | 10% | 1012.7 hPa | 0 mm | - | 372 W/m² | - |
| 1777679818 | 23.33° C | 10% | 1012.9 hPa | 0 mm | - | 394 W/m² | - |
| 1777679515 | 23.89° C | 10% | 1013.1 hPa | 0 mm | - | 407 W/m² | - |
| 1777679210 | 22.78° C | 10% | 1013 hPa | 0 mm | - | 469 W/m² | - |
| 1777678908 | 22.22° C | 11% | 1013.3 hPa | 0 mm | - | 466 W/m² | - |
| 1777678606 | 22.22° C | 13% | 1013.3 hPa | 0 mm | - | 499 W/m² | - |
| 1777678302 | 22.78° C | 13% | 1013.1 hPa | 0 mm | - | 469 W/m² | - |
| 1777677998 | 22.78° C | 13% | 1013.4 hPa | 0 mm | - | 506 W/m² | - |
| 1777677696 | 22.22° C | 13% | 1013.4 hPa | 0 mm | - | 544 W/m² | - |
| 1777677394 | 22.22° C | 13% | 1013.3 hPa | 0 mm | - | 502 W/m² | - |
* Rain latest hour (hover to see other rain measurements)
** Current wind speed in m/s (hover to see current wind gust speed)